Probability
29 23 19 23 19 19 16 16 13 13 13 13 16 13 13 6 0 6 13 6 13 10 10 6 6 3 3 3 3 3 0 0 0 0 0 0 0 0 0 0 0 0 3
13 16 6 13 16 16 13 13 10 10 6 13 16 10 3 0 0 0 0 0 3 6 10 3 3 3 3 3 3 0 0 0 0 0 0 0 0 0 0 0 0 0 0
13 6 10 13 13 16 13 13 10 10 10 6 16 10 0 0 0 0 0 0 0 0 0 3 3 0 3 0 0 0 0 0 0 0 0 0 0 0 0 0 0 0 0
13 6 10 10 16 16 16 13 10 10 10 6 3 6 0 0 0 0 0 0 0 0 0 0 0 0 0 0 0 0 0 0 0 0 0 0 0 0 0 0 0 0 0
10 10 10 16 16 13 10 10 10 3 3 0 0 0 0 0 0 0 0 0 0 0 0 0 0 0 3 0 0 0 0 0 0 0 0 0 0 0 0 0 0 0 0
16 13 10 16 10 10 6 6 6 3 0 0 0 0 0 0 0 0 0 0 0 0 0 0 0 0 0 0 0 0 0 0 0 0 0 0 0 0 0 0 0 0 0
13 16 10 10 10 6 6 6 3 0 0 0 0 0 0 0 0 0 0 0 0 0 0 0 0 0 0 0 0 0 0 0 0 0 0 0 0 0 0 0 0 0 0
10 6 3 0 0 3 6 3 0 0 0 0 0 0 0 0 0 0 0 0 0 0 0 0 0 0 0 0 0 0 0 0 0 0 0 0 0 0 0 0 0 0 0
0 6 3 3 0 0 0 0 0 0 0 0 0 0 0 0 0 0 0 0 0 0 0 0 0 0 0 0 0 0 0 0 0 0 0 0 0 0 0 0 0 0 0
0 3 3 3 0 0 0 0 0 0 0 0 0 0 0 0 0 0 0 0 0 0 0 0 0 0 0 0 0 0 0 0 0 0 0 0 0 0 0 0 0 0 0
3 3 3 3 3 0 0 0 0 0 0 0 0 0 0 0 0 0 0 0 0 0 0 0 0 0 0 0 0 0 0 0 0 0 0 0 0 0 0 0 0 0 0
3 3 3 0 0 0 0 0 0 0 0 0 0 0 0 0 0 0 0 0 0 0 0 0 0 0 0 0 0 0 0 0 0 0 0 0 0 0 0 0 0 0 0
3 3 0 0 0 0 0 0 0 0 0 0 0 0 0 0 0 0 0 0 0 0 0 0 0 0 0 0 0 0 0 0 0 0 0 0 0 0 0 0 0 0 0
3 0 0 0 0 0 0 0 0 0 0 0 0 0 0 0 0 0 0 0 0 0 0 0 0 0 0 0 0 0 0 0 0 0 0 0 0 0 0 0 0 0 0
0 0 0 0 0 0 0 0 0 0 0 0 0 0 0 0 0 0 0 0 0 0 0 0 0 0 0 0 0 0 0 0 0 0 0 0 0 0 0 0 0 0 0
0 0 0 0 0 0 0 0 0 0 0 0 0 0 0 0 0 0 0 0 0 0 0 0 0 0 0 0 0 0 0 0 0 0 0 0 0 0 0 0 0 0 0
0 0 0 0 0 0 0 0 0 0 0 0 0 0 0 0 0 0 0 0 0 0 0 0 0 0 0 0 0 0 0 0 0 0 0 0 0 0 0 0 0 0 0
0 0 0 0 0 0 0 0 0 0 0 0 0 0 0 0 0 0 0 0 0 0 0 0 0 0 0 0 0 0 0 0 0 0 0 0 0 0 0 0 0 0 0
0 0 0 0 0 0 0 0 0 0 0 0 0 0 0 0 0 0 0 0 0 0 0 0 0 0 0 0 0 0 0 0 0 0 0 0 0 0 0 0 0 0 0
0 0 0 0 0 0 0 0 0 0 0 0 0 0 0 0 0 0 0 0 0 0 0 0 0 0 0 0 0 0 0 0 0 0 0 0 0 0 0 0 0 0 0
0 0 0 0 0 0 0 0 0 0 0 0 0 0 0 0 0 0 0 0 0 0 0 0 0 0 0 0 0 0 0 0 0 0 0 0 0 0 0 0 0 0 0
0 0 0 0 0 0 0 0 0 0 0 0 0 0 0 0 0 0 0 0 0 0 0 0 0 0 0 0 0 0 0 0 0 0 0 0 0 0 0 0 0 0 0
0 0 0 0 0 0 0 0 0 0 0 0 0 0 0 0 0 0 0 0 0 0 0 0 0 0 0 0 0 0 0 0 0 0 0 0 0 0 0 0 0 0 0
0 0 0 0 0 0 0 0 0 0 0 0 0 0 0 0 0 0 0 0 0 0 0 0 0 0 0 0 0 0 0 0 0 0 0 0 0 0 0 0 0 0 0
0 0 0 0 0 0 0 0 0 0 0 0 0 0 0 0 0 0 0 0 0 0 0 0 0 0 0 0 0 0 0 0 0 0 0 0 0 0 0 0 0 0 0
0 0 0 0 0 0 0 0 0 0 0 0 0 0 0 0 0 0 0 0 0 0 0 0 0 0 0 0 0 0 0 0 0 0 0 0 0 0 0 0 0 0 0
Height
5859 5860 5860 5860 5859 5858 5857 5856 5855 5854 5853 5852 5850 5849 5847 5846 5844 5843 5842 5841 5840 5840 5839 5839 5839 5839 5840 5840 5841 5842 5843 5844 5845 5846 5847 5848 5848 5849 5849 5850 5850 5851 5852
5856 5856 5856 5856 5855 5854 5853 5852 5851 5850 5849 5847 5845 5844 5842 5840 5839 5838 5837 5836 5835 5834 5833 5833 5833 5833 5833 5835 5835 5836 5837 5838 5839 5840 5841 5842 5843 5843 5844 5844 5845 5845 5846
5852 5852 5852 5851 5850 5850 5849 5847 5846 5845 5843 5842 5840 5839 5837 5835 5834 5832 5831 5830 5829 5829 5827 5827 5827 5827 5827 5828 5829 5830 5831 5833 5834 5835 5836 5836 5836 5837 5838 5839 5839 5839 5840
5847 5848 5847 5846 5846 5845 5843 5842 5840 5839 5838 5837 5835 5833 5832 5830 5828 5827 5825 5824 5823 5822 5822 5821 5821 5821 5822 5822 5823 5825 5826 5827 5828 5829 5830 5831 5831 5832 5833 5833 5833 5834 5834
5841 5841 5841 5841 5841 5839 5838 5836 5835 5833 5832 5831 5830 5828 5826 5824 5822 5821 5819 5818 5817 5817 5816 5816 5816 5816 5817 5817 5818 5819 5820 5821 5822 5822 5823 5824 5825 5826 5827 5827 5828 5828 5828
5835 5836 5836 5835 5835 5834 5832 5830 5829 5828 5826 5825 5823 5822 5820 5818 5816 5815 5814 5813 5812 5811 5810 5810 5810 5810 5811 5811 5812 5812 5813 5814 5815 5816 5817 5817 5818 5819 5820 5821 5821 5821 5822
5831 5830 5830 5830 5829 5828 5826 5825 5823 5821 5820 5818 5817 5815 5814 5812 5810 5809 5808 5807 5806 5805 5805 5804 5804 5804 5804 5805 5805 5806 5807 5807 5808 5809 5810 5811 5812 5813 5814 5815 5815 5815 5815
5825 5825 5824 5824 5824 5822 5820 5818 5817 5815 5813 5811 5810 5808 5807 5805 5804 5802 5801 5801 5799 5799 5798 5798 5798 5798 5798 5798 5798 5799 5800 5800 5801 5802 5803 5804 5805 5806 5806 5807 5808 5808 5809
5820 5819 5817 5818 5817 5815 5813 5812 5810 5808 5806 5804 5802 5801 5800 5798 5797 5796 5795 5794 5793 5792 5792 5791 5791 5791 5791 5791 5792 5792 5792 5793 5794 5794 5795 5796 5797 5798 5798 5799 5800 5801 5802
5815 5814 5812 5812 5810 5809 5807 5805 5803 5801 5799 5797 5795 5794 5792 5791 5790 5789 5788 5787 5786 5786 5785 5785 5784 5784 5784 5784 5784 5785 5785 5786 5786 5786 5787 5788 5789 5789 5790 5791 5792 5793 5794
5810 5808 5807 5805 5803 5802 5800 5798 5796 5794 5792 5790 5788 5787 5785 5784 5783 5782 5781 5780 5779 5778 5778 5777 5777 5776 5776 5776 5776 5776 5777 5777 5777 5778 5778 5779 5780 5781 5781 5782 5783 5784 5785
5804 5802 5801 5799 5797 5795 5793 5791 5789 5787 5784 5782 5781 5779 5778 5776 5775 5774 5773 5772 5772 5771 5770 5770 5769 5768 5768 5768 5767 5767 5768 5768 5768 5769 5769 5770 5770 5772 5773 5774 5774 5775 5776
5798 5796 5794 5793 5791 5788 5786 5784 5781 5779 5777 5775 5773 5771 5770 5769 5768 5767 5766 5765 5764 5764 5763 5762 5761 5761 5760 5759 5759 5759 5759 5759 5759 5759 5760 5761 5761 5762 5763 5765 5766 5766 5767
5793 5790 5788 5786 5784 5782 5779 5777 5774 5772 5769 5767 5765 5764 5763 5761 5760 5759 5758 5758 5757 5756 5755 5754 5754 5753 5752 5752 5751 5751 5750 5750 5750 5750 5751 5751 5752 5753 5754 5755 5757 5758 5758
5787 5785 5782 5779 5777 5775 5773 5770 5767 5765 5762 5760 5758 5757 5755 5754 5753 5752 5751 5750 5749 5748 5748 5747 5746 5745 5744 5744 5743 5743 5742 5742 5742 5742 5742 5743 5743 5744 5745 5746 5748 5749 5750
5781 5778 5776 5773 5771 5768 5765 5763 5760 5758 5755 5753 5752 5750 5749 5748 5746 5745 5744 5743 5742 5741 5740 5740 5739 5738 5737 5736 5735 5735 5734 5734 5734 5734 5734 5734 5735 5735 5736 5737 5739 5740 5742
5775 5772 5769 5767 5764 5761 5758 5756 5754 5751 5749 5747 5746 5744 5742 5741 5739 5738 5737 5736 5735 5734 5733 5732 5731 5730 5729 5729 5728 5727 5727 5726 5726 5726 5726 5726 5727 5727 5728 5730 5731 5732 5734
5770 5767 5764 5761 5758 5755 5753 5750 5748 5745 5743 5741 5739 5738 5736 5734 5733 5731 5730 5729 5728 5727 5726 5725 5724 5723 5723 5722 5721 5720 5720 5719 5719 5718 5718 5718 5719 5720 5721 5722 5724 5725 5727
5765 5762 5759 5756 5753 5750 5747 5745 5742 5740 5738 5736 5734 5732 5730 5728 5727 5725 5724 5723 5722 5721 5720 5719 5718 5717 5716 5715 5714 5713 5713 5712 5712 5711 5711 5711 5712 5713 5714 5715 5717 5719 5721
5762 5758 5755 5751 5748 5745 5742 5740 5738 5735 5733 5731 5729 5727 5725 5723 5722 5720 5719 5717 5716 5715 5714 5713 5712 5711 5710 5709 5708 5708 5707 5706 5706 5705 5705 5705 5706 5707 5708 5709 5711 5713 5715
5759 5755 5751 5747 5744 5741 5739 5736 5734 5731 5729 5727 5725 5723 5721 5719 5718 5716 5714 5713 5712 5710 5709 5708 5707 5706 5706 5705 5704 5703 5701 5701 5700 5700 5700 5701 5701 5702 5703 5705 5707 5709 5711
5756 5752 5748 5744 5741 5738 5736 5733 5731 5729 5727 5725 5722 5721 5719 5717 5715 5713 5711 5709 5708 5706 5705 5704 5703 5702 5702 5701 5700 5698 5697 5697 5696 5696 5696 5697 5697 5698 5700 5701 5703 5705 5707
5753 5749 5746 5742 5739 5736 5734 5732 5730 5727 5725 5723 5721 5719 5717 5715 5713 5711 5708 5707 5705 5704 5702 5701 5700 5699 5698 5697 5696 5695 5694 5693 5693 5693 5693 5694 5694 5695 5697 5699 5700 5703 5705
5752 5748 5744 5741 5738 5735 5733 5731 5729 5726 5724 5722 5720 5718 5716 5714 5711 5709 5707 5705 5703 5702 5700 5699 5698 5697 5696 5695 5694 5693 5692 5692 5691 5691 5691 5692 5693 5694 5695 5697 5699 5701 5704
5751 5748 5744 5741 5738 5735 5733 5731 5729 5726 5724 5722 5720 5717 5715 5713 5710 5708 5706 5704 5702 5700 5699 5698 5697 5696 5695 5694 5693 5692 5691 5691 5691 5691 5691 5692 5693 5694 5695 5697 5699 5701 5703
5751 5748 5745 5742 5739 5736 5734 5731 5729 5727 5724 5722 5719 5717 5715 5712 5710 5708 5706 5703 5702 5700 5698 5697 5696 5695 5694 5693 5693 5692 5691 5691 5691 5692 5692 5693 5693 5694 5695 5697 5698 5700 5703
Wind_Speed
18 16 16 17 18 18 18 18 19 19 20 21 22 22 22 22 22 22 22 22 23 23 23 24 24 23 24 23 23 22 22 22 21 21 22 23 22 23 24 23 23 22 22
16 17 17 17 18 19 19 19 19 20 21 21 22 23 24 24 24 23 23 23 22 22 23 23 23 23 23 22 22 21 20 20 20 20 21 22 22 22 23 23 23 23 23
14 15 16 17 18 19 19 20 21 21 21 22 22 23 24 24 24 24 24 24 23 22 22 21 21 21 21 21 21 20 20 20 20 20 20 21 21 21 21 21 22 22 22
14 15 16 16 18 19 20 20 21 21 21 21 22 22 23 23 23 23 23 21 21 21 21 21 21 21 20 20 20 20 21 21 21 21 21 21 22 22 22 22 22 22 22
15 16 16 17 18 19 20 21 21 22 22 22 23 23 22 23 23 22 21 21 21 20 20 21 20 20 21 20 20 20 21 21 21 21 22 22 21 22 22 22 22 22 22
17 17 18 19 19 20 20 21 22 23 23 23 23 23 23 23 22 21 21 21 21 21 20 20 20 20 21 21 21 22 22 22 22 22 22 22 22 21 22 22 23 23 23
17 17 17 19 20 21 22 23 23 24 24 24 24 24 24 23 22 21 20 21 22 22 21 20 19 19 20 20 21 21 21 22 22 22 23 23 23 23 23 23 23 23 23
19 19 19 20 21 22 23 23 23 24 25 25 25 25 25 24 23 22 22 22 22 21 21 20 20 20 21 21 21 22 22 22 23 24 24 24 24 24 24 24 24 24 24
22 21 20 20 22 22 23 23 23 24 24 26 26 26 26 25 24 23 23 22 22 22 22 22 22 22 22 23 23 24 24 24 24 25 25 25 26 26 26 26 25 25 25
20 20 21 21 22 22 23 23 23 24 24 25 26 26 26 26 25 25 24 23 23 23 23 24 24 24 24 25 24 25 25 26 27 27 27 27 27 27 27 27 27 27 26
19 19 20 22 23 23 23 23 23 24 25 25 26 26 26 26 25 25 25 24 24 23 23 23 24 25 26 26 26 27 27 27 28 28 28 28 29 29 28 28 28 28 28
20 21 21 21 22 22 23 23 24 24 24 24 24 26 26 25 25 25 24 24 24 24 24 24 24 24 25 25 26 27 28 28 28 28 28 28 29 29 29 29 29 29 29
20 21 22 22 22 23 24 24 24 24 24 24 24 25 24 24 25 24 24 24 24 24 24 24 24 24 24 25 25 26 27 28 28 29 29 29 29 29 29 29 29 28 28
21 20 21 22 22 23 24 25 24 24 24 24 24 23 23 22 23 24 23 23 23 24 24 24 24 24 24 24 25 25 26 26 27 27 28 28 28 29 29 29 28 28 27
21 21 20 21 22 22 23 23 23 23 23 22 21 21 21 22 22 23 23 23 23 23 24 25 24 24 24 24 25 25 25 25 25 25 26 26 26 28 29 29 28 28 27
20 21 20 21 21 22 22 22 22 22 21 20 20 21 21 22 22 23 24 23 23 22 23 23 23 23 23 24 24 24 24 24 24 25 25 25 26 26 26 26 26 26 26
19 20 20 20 20 20 21 21 21 21 21 21 21 21 21 21 22 22 22 22 22 22 22 22 22 22 22 22 23 23 23 23 23 23 24 24 24 24 24 24 24 23 23
17 18 19 18 19 19 19 19 19 19 20 20 20 20 21 21 20 20 20 20 20 20 20 21 20 20 20 21 21 21 21 21 21 22 22 22 23 22 22 21 22 22 21
17 17 18 18 18 18 17 17 17 18 18 18 18 18 18 18 18 19 19 19 19 18 18 18 18 18 18 18 18 19 19 19 20 20 20 21 21 21 20 20 20 20 20
17 17 18 17 16 16 16 15 16 16 16 16 16 16 16 16 17 16 16 16 16 16 17 16 16 15 16 16 17 17 17 17 17 17 17 17 18 18 18 18 19 18 18
17 17 17 16 15 14 14 14 14 13 13 13 13 13 13 13 13 13 13 13 13 13 13 13 13 13 14 14 15 15 15 15 15 15 14 14 14 15 15 16 17 17 16
17 17 16 14 13 12 11 11 11 11 11 11 11 10 10 10 10 10 11 11 11 11 11 11 11 12 12 12 12 12 12 12 12 12 12 12 12 12 12 13 14 14 14
16 16 15 13 12 10 10 9 10 10 10 9 8 8 8 9 10 10 10 9 9 9 9 9 9 9 10 10 10 10 10 9 8 8 9 10 10 10 10 10 11 12 13
16 15 14 13 11 9 9 9 10 10 9 8 8 8 9 10 10 9 9 8 7 7 7 7 7 8 7 7 7 6 6 5 5 4 5 6 7 8 9 10 11 12 13
15 15 14 13 11 10 9 9 10 10 9 9 9 9 10 10 9 9 9 9 8 7 5 5 5 5 5 4 4 3 3 2 2 1 2 4 5 6 8 9 10 11 12
15 14 13 13 12 12 11 10 10 11 11 10 10 10 10 9 9 10 10 9 8 7 5 4 4 4 3 3 3 2 2 2 3 3 3 5 5 6 7 8 8 9 11
Wind_Direction
256 259 264 271 277 281 283 284 287 287 287 288 288 286 286 286 286 286 285 281 277 275 272 269 267 265 263 261 259 255 254 253 251 253 254 253 253 255 258 258 260 261 261
258 261 266 269 275 278 281 283 285 287 287 287 287 288 289 287 286 285 283 280 277 274 270 266 266 262 259 257 255 253 251 250 251 252 250 251 252 255 255 257 258 259 259
263 268 269 270 273 275 278 282 283 285 286 287 287 288 288 287 285 283 282 279 277 273 271 266 265 261 258 255 253 248 247 249 250 252 252 253 252 255 255 257 258 258 259
256 263 267 270 273 276 279 282 283 283 284 285 287 287 288 287 285 284 281 278 276 274 269 266 263 260 256 253 251 248 249 250 251 252 251 251 253 253 255 258 259 259 260
261 266 267 270 274 279 281 283 283 283 283 284 286 286 286 286 285 282 280 279 276 272 267 262 260 256 253 252 251 251 251 251 253 253 252 251 251 251 251 254 258 259 260
268 269 270 270 273 278 281 281 282 283 284 285 286 286 285 286 286 281 277 276 275 273 270 264 259 257 255 253 254 255 254 253 253 254 254 253 253 253 252 253 256 258 260
272 275 272 272 277 279 281 281 282 283 283 283 284 285 285 286 285 282 278 276 275 272 268 264 261 259 256 255 256 256 256 255 255 254 254 255 255 254 254 253 255 257 259
274 277 273 275 280 282 283 283 284 283 283 283 283 283 285 285 284 282 279 276 275 273 271 267 263 260 259 258 259 258 256 255 255 255 255 255 254 255 256 256 256 257 258
272 276 274 275 280 283 285 286 287 287 286 284 282 283 283 284 283 281 279 277 274 271 270 269 267 266 264 262 260 258 256 256 256 257 257 257 256 256 257 258 258 259 259
278 282 281 281 283 287 288 289 290 288 286 284 282 282 282 281 281 280 278 277 274 270 269 268 266 265 264 263 261 258 258 258 258 258 258 258 257 256 256 257 258 259 260
284 289 288 287 288 288 288 289 290 289 287 287 284 281 281 280 280 280 278 276 274 272 271 270 267 265 263 262 261 260 260 260 260 259 259 258 256 256 257 257 258 259 260
292 294 293 290 289 289 290 290 290 290 289 288 285 282 280 279 280 281 279 276 274 273 274 274 271 268 266 264 263 263 262 262 260 259 259 258 258 257 256 257 257 259 259
301 296 293 289 290 290 292 292 291 291 289 287 284 282 282 280 279 279 278 277 276 275 275 275 273 271 270 268 267 266 265 263 261 260 259 259 258 258 257 257 257 257 258
301 297 293 291 291 292 293 292 291 292 289 286 282 280 280 280 279 278 276 275 275 275 275 273 272 271 271 271 269 269 267 264 262 261 260 260 258 258 257 256 256 257 257
301 299 296 294 292 293 293 293 292 293 291 287 283 280 278 278 278 278 277 276 276 276 275 272 271 271 271 271 271 269 267 265 264 262 262 260 260 259 257 255 255 255 255
305 304 301 297 295 295 295 293 292 291 291 288 284 281 279 277 276 278 278 276 275 274 274 273 273 273 272 272 272 269 267 266 266 266 263 262 261 259 256 253 253 253 253
308 308 305 301 301 299 298 296 293 291 290 287 285 282 282 280 280 279 276 276 275 274 275 276 275 273 271 270 271 271 268 267 267 266 265 262 260 257 255 252 251 250 249
314 313 310 307 306 303 301 299 296 295 291 288 288 287 287 284 282 279 277 277 277 278 278 278 276 274 273 271 271 271 268 267 266 266 264 262 259 256 253 251 248 246 246
322 320 318 313 310 307 304 301 300 297 293 291 291 291 290 287 285 282 281 281 280 280 281 278 277 275 273 273 274 273 272 270 267 266 265 261 258 255 251 247 245 244 242
328 328 326 322 317 315 312 308 306 304 300 298 294 293 293 290 288 286 285 286 284 282 281 280 279 276 274 276 278 280 277 274 270 267 265 260 256 254 249 245 241 239 237
335 333 332 330 326 321 319 314 312 311 310 309 305 302 300 299 296 293 290 289 288 286 283 282 280 278 279 280 280 282 278 274 272 268 263 257 253 250 246 240 235 232 228
340 339 339 338 334 330 327 323 321 321 320 318 316 312 308 309 309 305 302 301 297 293 289 285 285 284 284 284 283 284 280 277 273 267 259 253 248 246 242 232 225 223 217
349 349 348 348 347 344 340 337 336 335 335 334 332 328 323 324 323 319 317 313 308 305 297 292 293 292 290 287 285 285 284 280 274 265 258 248 240 236 228 220 217 213 206
359 360 359 359 359 359 358 356 357 357 355 353 350 346 342 340 339 340 338 332 325 318 311 305 301 298 295 291 293 291 286 280 272 267 254 237 224 218 211 208 206 203 199
6 7 9 12 15 14 11 9 7 7 5 0 355 354 354 354 353 350 349 343 336 333 330 327 323 318 312 310 316 311 295 272 257 221 202 194 192 194 194 194 197 198 195
12 14 17 19 21 21 20 20 19 14 10 8 7 4 3 1 356 354 356 1 2 5 7 5 4 6 11 19 26 31 59 108 113 117 141 158 166 170 174 177 184 187 188